Regional Weather Roundup
Issued by NWS Green Bay, WI

Home | Current Version | Previous Version | Graphics & Text | Print | Product List | Glossary Off
Versions: 1 2 3 4 5 6 7 8 9 10 11 12 13 14 15 16 17 18 19 20 21 22 23 24 25 26 27 28 29 30 31 32 33 34 35 36 37 38 39 40 41 42 43 44 45 46 47 48 49 50

000
ASUS43 KGRB 100259
RWRGRB

NORTH-CENTRAL AND NORTHEAST WISCONSIN REGIONAL WEATHER ROUNDUP
NATIONAL WEATHER SERVICE GREEN BAY WI
1000 PM CDT WED JUL 09 2014

WIZ005-009-010>012-018-019-100400-
NORTH CENTRAL WISCONSIN

CITY           SKY/WX    TMP DP  RH WIND       PRES   REMARKS
IRONWOOD       NOT AVBL
MANITOWISH WTR NOT AVBL
ARBOR VITAE    NOT AVBL
EAGLE RIVER    NOT AVBL
LAND O LAKES   NOT AVBL
RHINELANDER    CLEAR     50  47  89 CALM      30.07R
PHILLIPS       NOT AVBL
ANTIGO         NOT AVBL
TOMAHAWK       NOT AVBL
MERRILL        NOT AVBL
$$

WIZ013-073-100400-
NORTHEAST WISCONSIN

CITY           SKY/WX    TMP DP  RH WIND       PRES   REMARKS
IRON MOUNTAIN  CLEAR     52  47  83 CALM      30.04R
MARINETTE        N/A     55  52  88 CALM      30.04R VSB 3/4
$$

WIZ017-030-035>037-045-100400-
CENTRAL WISCONSIN

CITY           SKY/WX    TMP DP  RH WIND       PRES   REMARKS
MEDFORD        NOT AVBL
WAUSAU         CLEAR     59  51  75 CALM      30.05R
MOSINEE        CLEAR     57  52  82 CALM      30.06R
MARSHFIELD     CLEAR     60  53  77 CALM      30.05R
WISC RAPIDS    PTCLDY    59  53  80 CALM      30.06R
STEVENS POINT  NOT AVBL
WAUPACA        NOT AVBL
SHAWANO        NOT AVBL
CLINTONVILLE   NOT AVBL
$$

WIZ038-039-048-051-100400-
FOX VALLEY

CITY           SKY/WX    TMP DP  RH WIND       PRES   REMARKS
NWS GREEN BAY  CLEAR     60  55  83 CALM      30.05R
APPLETON       CLEAR     63  46  55 CALM      30.05R
OSHKOSH        CLEAR     60  54  80 CALM      30.04R
FOND DU LAC    CLEAR     57  53  86 W3        30.05R
$$

WIZ022-050-052-100400-
EAST CENTRAL WISCONSIN

CITY           SKY/WX    TMP DP  RH WIND       PRES   REMARKS
STURGEON BAY   CLEAR     57  52  82 CALM      30.05R
MANITOWOC      NOT AVBL
SHEBOYGAN      CLEAR     57  54  89 CALM      30.05R
$$

LMZ563-521-522-541>543-100400-
LAKESHORE

STATION/POSITION TIME  TEMP    WIND        PRES    VSBY  WAVE
                       AIR SEA DIR/SP/G                  HT/PER
                 (UTC) (F)     (DEG/KT/KT) (MB)    (MI)  (FT/S)
SHEBOYGAN LKSHOR 0200   57     180/  4/  5 1017.3R
KEWAUNEE LKSHORE 0200   55      CALM  /  1 1017.8R
NORTHPORT PIER   0200   57      CALM  /  2 1017.3R
N MID LAKE BUOY  0200   57 54  290/  4/  4 1016.5R         0
SISTER BAY LKSHO 0200   58        CALM       N/A
MENOMINEE LKSHOR 0200   63      CALM  /  1 1017.6R
$$


USA.gov is the U.S. government's official web portal to all federal, state and local government web resources and services.